User: anonymous   Login
Location: Unspecified
(0.0000°N, 0.0000°E)
Time: 10:24:27
(UTC+00:00)
Language:

SPROUT - Orbit

View from above orbital plane
View from above orbital plane
View from above satellite
View from above satellite

Ground track
Ground track

The orbit data is extracted from the following two-line orbital elements,

1 39770U 14029E   19082.10284377  .00000564  00000-0  68768-4 0  9998
2 39770  97.8789 186.0126 0009075  24.2081 335.9524 14.87220795261812
Epoch (UTC): 23 March 2019 02:28:05
Eccentricity: 0.0009075
inclination: 97.8789°
perigee height: 600 km
apogee height: 613 km
right ascension of ascending node: 186.0126°
argument of perigee: 24.2081°
revolutions per day: 14.87220795
mean anomaly at epoch: 335.9524°
orbit number at epoch: 26181

The dashed part of the orbit path shows where the satellite is in the earth's shadow,  

DLR